Hourly Data Report for June 06, 2021

GAMETI
NORTHWEST TERRITORIES
Current Station Operator: ECCC - MSC

64°06'42.078" N
117°19'40.086" W
221.00 m
2203359
71165
WYH

Download Data

Hourly Data (June 2021)
Hourly Data Report for June 6, 2021
TIME
LST
Temp Definition
°C
Dew Point Definition
°C
Rel Hum Definition
%
Precip. Amount Definition
mm

Wind Dir Definition
10's deg

Wind Spd Definition
km/h
Visibility Definition
km
Stn Press Definition
kPa
Hmdx Definition


Wind Chill Definition


Weather Definition


00:00 2.2 -1.3 77 LegendMM 32 24   97.76     LegendNANA
01:00 1.6 -1.8 78 LegendMM 32 20   97.81     LegendNANA
02:00 1.1 -1.8 81 LegendMM 32 18   97.84     LegendNANA
03:00 0.8 -2.1 81 LegendMM 33 20   97.86     LegendNANA
04:00 0.5 -2.4 81 LegendMM 32 20   97.94     LegendNANA
05:00 0.7 -2.2 81 LegendMM 33 22   97.97     LegendNANA
06:00 1.0 -2.2 79 LegendMM 33 24   98.00     LegendNANA
07:00 0.7 -2.0 82 LegendMM 33 25   98.05     LegendNANA
08:00 1.5 -2.0 78 LegendMM 33 27   98.09     LegendNANA
09:00 2.0 -2.1 75 LegendMM 33 26   98.13     LegendNANA
10:00 2.6 -2.0 71 LegendMM 34 25   98.19     LegendNANA
11:00 3.2 -1.8 70 LegendMM 34 25   98.22     LegendNANA
12:00 3.7 -1.9 67 LegendMM 34 27   98.25     LegendNANA
13:00 4.6 -1.5 65 LegendMM 33 24   98.29     LegendNANA
14:00 4.7 -1.4 65 LegendMM 33 21   98.32     LegendNANA
15:00 5.5 -1.2 62 LegendMM 35 26   98.36     LegendNANA
16:00 6.0 -1.2 60 LegendMM 1 23   98.40     LegendNANA
17:00 5.5 -0.1 67 LegendMM 36 21   98.45     LegendNANA
18:00 4.8 -0.4 69 LegendMM 36 22   98.49     LegendNANA
19:00 3.9 0.8 80 LegendMM 1 21   98.54     LegendNANA
20:00 4.1 0.3 76 LegendMM 36 18   98.58     LegendNANA
21:00 3.7 0.5 80 LegendMM 1 13   98.63     LegendNANA
22:00 3.4 -0.8 74 LegendMM 36 19   98.67     LegendNANA
23:00 3.0 -1.0 75 LegendMM 36 15   98.70     LegendNANA

Notes on Data Quality.

Legend

  • E = Estimated
  • M = Missing
  • NA = Not Available*
  • [empty] = Indicates an unobserved value
Date modified: